Regional Weather Roundup
Issued by NWS Wakefield, VA

Home | Current Version | Previous Version | Text Only | Print | Product List | Glossary On
Versions: 1 2 3 4 5 6 7 8 9 10 11 12 13 14 15 16 17 18 19 20 21 22 23 24 25 26 27 28 29 30 31 32 33 34 35 36 37 38 39 40 41 42 43 44 45 46 47 48 49 50
000
ASUS41 KAKQ 112110
RWRAKQ

REGIONAL WEATHER ROUNDUP
NATIONAL WEATHER SERVICE WAKEFIELD VA
500 PM EDT FRI JUL 11 2014

Note: "fair" indicates few or no clouds below 12,000 feet with no
significant weather and/or obstructions to visibility. * = Denotes
station may not report precipitation (e.g., rain,snow,etc.),
thunder or fog.

VAZ042-051-052>054-056-112200-
NORTHERN VIRGINIA

CITY           SKY/WX    TMP DP  RH WIND       PRES   REMARKS
WASH NATIONAL  PTSUNNY   86  63  45 E5        30.16F
DULLES         MOSUNNY   83  62  49 SE5       30.16F
FORT BELVOIR   DRIZZLE   85  66  52 SW6       30.17F
QUANTICO       MOSUNNY   83  68  60 S8        30.17F
FREDERICKSBRG* SUNNY     87  63  44 E3        30.16F
STAFFORD*      MOSUNNY   85  66  52 SE5       30.21S
WARRENTON      SUNNY     87  71  59 CALM      30.17F
CULPEPER*      MOSUNNY  N/A N/A N/A CALM      30.17F
MANASSAS*      MOSUNNY   84  68  58 CALM      30.17
LEESBURG*      CLOUDY    86  66  51 E5        30.18S
WINCHESTER     CLOUDY    82  61  47 E6        30.19S
$$

VAZ048-049-060>072-079>083-112200-
CENTRAL AND SOUTH CENTRAL VIRGINIA...AND NORTH CENTRAL NORTH CAROLINA

CITY           SKY/WX    TMP DP  RH WIND       PRES   REMARKS
RICHMOND       PTSUNNY   86  64  47 NE5       30.16F
CHESTERFIELD*  PTCLDY    86  63  45 CALM      30.18F
HANOVER        SUNNY     85  65  51 VRB3      30.17F
TAPPAHANNOCK*  SUNNY     86  57  36 CALM      30.18S
CHARLOTTSVILLE MOSUNNY   84  64  50 CALM      30.18F
ORANGE*        MOSUNNY   82  63  51 CALM      30.19S
LOUISA*        MOSUNNY   84  64  51 N3        30.17S
FARMVILLE*     PTSUNNY   90  64  43 E6        30.15S
SOUTH HILL*    MOSUNNY   84  68  58 CALM      30.23S
ROANOKE RAPIDS MOCLDY    84  70  61 E3        30.17S
RALEIGH        PTSUNNY   85  65  51 CALM      30.17S
$$

VAZ088>098-112200-
SOUTHEAST VIRGINIA

CITY           SKY/WX    TMP DP  RH WIND       PRES   REMARKS
NORFOLK        CLOUDY    76  70  82 NE9       30.17S
VIRGINIA BEACH PTSUNNY   78  71  79 NE12      30.16S
NORFOLK NAVAL  CLOUDY    78  71  79 NE9       30.19S
WEST POINT*    PTSUNNY   85  67  53 NE6       30.18S
NEWPORT NEWS   CLOUDY    82  71  69 E9        30.18S
LANGLEY AFB    CLOUDY    78  71  79 E12       30.17F
FORT EUSTIS    NOT AVBL
WILLIAMSBURG*  PTSUNNY   82  73  74 SE3       30.18S
FRANKLIN*      CLOUDY    82  70  65 CALM      30.17S
WAKEFIELD      PTSUNNY   85  69  58 CALM      30.16F
$$

VAZ020-022-025-037-045-112200-
WESTERN AND SOUTHWEST VIRGINIA

CITY           SKY/WX    TMP DP  RH WIND       PRES   REMARKS
STAUNTON*      CLOUDY    80  64  58 E6        30.23S
HOT SPRINGS VA PTSUNNY   70  57  64 S7        30.35S
LYNCHBURG      MOSUNNY   84  68  58 SE7       30.20S
DANVILLE       MOSUNNY   87  64  46 VRB5      30.18F
MARTINSVILLE   SUNNY     84  64  51 CALM      30.21S
ROANOKE        MOSUNNY   84  62  47 SE9       30.21F
BLACKSBURG     CLOUDY    81  66  61 E8        30.26S
DUBLIN*        MOSUNNY   87  49  26 CALM      30.24S
MARION*        SUNNY     84  56  38 CALM      30.26F
HILLSVILLE*    MOSUNNY   78  64  61 SE5       30.27S
RICHLANDS*     MOCLDY    85  58  40 NE6       30.26S
WISE*          MOSUNNY   81  52  36 CALM      30.27F
ABINGDON*      SUNNY     87  52  29 CALM      30.22F
$$

MDZ021>025-VAZ099-100-112200-
SOUTHERN MARYLAND AND THE DELMARVA PENINSULA

CITY           SKY/WX    TMP DP  RH WIND       PRES   REMARKS
PATUXENT RIVER MOSUNNY   83  66  56 E3        30.17S
BAY BRIDGE APT   N/A     82  64  54 CALM      30.16F
LEONARDTOWN    SUNNY     82  64  54 W3        30.18F
DOVER          SUNNY     82  70  68 SE13      30.16F
GEORGETOWN     MOSUNNY   81  66  60 E14       30.19S
EASTON         CLOUDY    82  72  69 CALM      30.21S
CAMBRIDGE      SUNNY     84  66  54 N5        30.16S
SALISBURY      MOSUNNY   84  66  54 E10       30.17F
OCEAN CITY     PTSUNNY   76  69  79 E9        30.19S
WALLOPS ISLAND PTSUNNY   78  69  73 E10       30.19S
ACCOMACK*        N/A     79  68  69 E3        30.18S
$$

NCZ012>017-030>032-112200-
EASTERN NORTH CAROLINA

CITY           SKY/WX    TMP DP  RH WIND       PRES   REMARKS
ELIZABETH CITY CLOUDY    81  72  74 NE7       30.16S
AHOSKIE*       PTSUNNY   79  70  74 CALM      30.17S
EDENTON*       CLOUDY    81  71  72 N3        30.16F
CURRITUCK*     CLOUDY    79  68  69 NE6       30.18S
KILL DEVIL HLS CLOUDY    76  72  86 NE5       30.15F
MANTEO         NOT AVBL
CAPE HATTERAS  CLOUDY    82  71  69 SW9       30.15F
GOLDSBORO      CLOUDY    80  75  84 NE5       30.15F
WASHINGTON     CLOUDY   N/A N/A N/A N6        30.17S
GREENVILLE     CLOUDY    81  72  74 N3        30.18S
NEW BERN       CLOUDY    84  72  65 SW3       30.16F
WILMINGTON     CLOUDY    80  72  76 S5        30.16F
$$

VAZ048-112200-
ELSEWHERE

CITY           SKY/WX    TMP DP  RH WIND       PRES   REMARKS
HARRISBURG PA  MOSUNNY   88  62  41 SW3       30.15F
BALTIMORE      MOSUNNY   86  61  42 E8        30.16F
ANNAPOLIS      SUNNY     82  68  62 SE9       30.16F
ANDREWS AFB    SUNNY     84  65  53 E7        30.17F
WILMINGTON DE  PTSUNNY   86  63  45 SE7       30.16F
PHILADELPHIA   MOSUNNY   86  55  34 NE5       30.16F
WILDWOOD NJ*   SUNNY     79  66  65 E8        30.20S
ATLANTIC CITY  SUNNY     81  64  56 E13       30.18S
HENDERSON NC   MOSUNNY   85  63  47 NE3       30.18F
GREENSBORO     MOSUNNY   85  63  47 E5        30.17F
ROCKY MOUNT    CLOUDY    82  68  62 NE6       30.17F
FAYETTEVILLE   CLOUDY    83  70  64 SE9       30.15F
CHARLOTTE      PTSUNNY   86  64  47 SE3       30.16F
$$

VAZ100-112200-
MARINE

STATION/POSITION TIME  TEMP    WIND        PRES    WAVE   SWELL
                       AIR SEA DIR/SP/G            HT/PER HT/PER
                 (UTC) (F)     (DEG/KT/KT) (MB)    (FT/S) (FT/S)
44066 TX TWR #4  2100   70 71   40/  8/ 10 1021.7F   2/ 6   2/ 6
CAPE MAY NJ      2100   75 72   90/  7/ 10 1022.1R
LEWES DE         2100   73 73  100/  8/ 10 1021.8R
15NM E FENWICK I 2100   73 74              1022.2F   2/ 7
OCEAN-CITY-INLET 2100   73 75   70/  5/  8 1022.0S
WACHAPREAGUE VA  2100   75 81   80/  7/ 10 1021.9R
THOMAS POINT MD  2100   82 79   CALM  /  1 1021.9F
GOOSES REEF MD   2100   79     340/  4/  6 1022.2F
COVE POINT MD    2100   78     350/  8/  8 1021.6S
SOLOMONS ISLAND  2100      81                N/A
BISHOPS HEAD MD  2100   79 81  260/  5/  7 1021.7S
PINEY POINT MD   2100          170/  4/  4   N/A
POTOMAC MD       2100   79     170/  4/  6 1021.1F
CAMBRIDGE MD     2100   80 80  330/  8/ 10 1021.0S
LEWISETTA VA     2100   79 81  120/  5/  6 1021.5F
RAPPAHANNOCK LGT 2100          140/  3/  4 1022.3F
STINGRAY PT      2100   78      60/  4/  6 1021.0F
YORK RVR RNG VA  2100   77      90/  8/ 10 1021.3R
YORKTOWN VA      2100   78 80   90/ 11/ 12 1021.6R
JAMESTOWN VA     2100   81     160/  4/  6   N/A
DOMINION TERM VA 2100   78      60/  8/ 10 1021.8S
KIPTOPEKE VA     2100      80   80/  7/ 11   N/A
CHES BAY BRIDGE  2100   74 78   50/ 12/ 13 1021.4R
CAPE HENRY VA    2100   74      50/ 12/ 13 1020.8R
WILLOUBY STN VA  2100   81      60/  9/ 10 1021.2S
S CRANEY ISL VA  2100           10/  9/ 11 1021.7F
CAPE HENRY BUOY  2100      77                N/A     2/ 6
1ST LANDING BUOY 2100   74      70/ 12/ 14 1021.5S
CAPE CHARLES BUO 2100      75                N/A     2/ 6
OFFSHORE WE BUOY 2100      76                N/A     2/ 6
64NM E OF VA BCH 2100   75 77   30/  8/  8 1021.3R   2/ 6   2/ 6
DUCK PIER NC     2000   74 72   20/  6/  6 1020.9R
44056 DUCK FRF   2100                        N/A     2/ 6
OREGON INLET NC  2100   77 82   20/  8/ 11 1021.3F
HATTERAS NC      2100   81 83  220/  5/  9 1021.5F
DIAMOND SHLS NC  2100          VRB 12/ 14  1020.8F   2/ 5   2/ 8
CAPE LOOKOUT NC  2000   79     210/  5/  6 1021.6F
$$



USA.gov is the U.S. government's official web portal to all federal, state and local government web resources and services.